Tracking 28081 objects as of 26-Sep-2023
HD Live streaming from Space Station
objects crossing your sky now

COSMOS 1375 DEB

Track COSMOS 1375 DEB now!
10-day predictions


NORAD ID: 16375
Int'l Code: 1982-055P
Perigee: 943.4 km
Apogee: 997.0 km
Inclination: 65.8 °
Period: 104.3 minutes
Semi major axis: 7341 km
RCS: 0.132 m2 (medium)
Launch date: June 6, 1982
Source: Commonwealth of Independent States (former USSR) (CIS)
Launch site: PLESETSK MISSILE AND SPACE COMPLEX (PKMTR)

Note: This is SATELLITE DEBRIS
Your satellite tracking list
Your tracking list is empty




NASA's NSSDC Master Catalog

Two Line Element Set (TLE):
1 16375U 82055P   23268.99610388  .00000059  00000-0  13415-3 0  9998
2 16375  65.8333  71.5684 0036499 276.4320 168.5127 13.80242461910661
Source of the keplerian elements: AFSPC